RH
30 30 29 32 34 36 35 34 36 64 66 58 56 55 49 48 40 37 35 32 30 38 60 82 86 87 87 86 86 86 88 91 88 87 85 84 82 82
34 32 33 36 36 43 42 42 42 39 74 56 58 56 52 46 46 42 36 32 36 42 43 47 68 83 92 90 91 90 93 91 88 88 87 84 83 82
35 31 35 35 34 34 34 38 41 41 54 60 57 58 54 54 51 43 38 34 35 40 44 41 53 74 80 94 96 97 94 94 90 91 88 82 84 84
33 30 32 30 29 30 27 31 36 40 41 60 60 57 58 55 41 38 38 39 37 42 60 61 65 65 87 84 84 91 85 89 89 84 80 82 84 84
32 30 31 30 32 32 30 28 36 42 41 50 57 54 54 47 43 41 46 50 55 56 58 52 47 51 60 72 73 75 65 56 72 76 81 84 84 85
38 38 37 36 36 37 36 37 35 41 46 45 48 49 48 54 58 57 57 56 54 51 54 58 56 63 59 63 62 69 61 69 82 84 84 84 84 84
43 43 42 42 44 39 38 42 40 41 45 48 51 55 59 63 64 67 69 69 60 61 62 59 55 51 50 47 48 55 66 75 77 81 82 82 81 81
37 40 44 48 72 74 67 54 52 59 67 70 76 74 76 78 77 76 75 75 75 70 70 66 60 51 46 46 53 73 74 76 77 83 82 81 80 81
40 42 46 49 48 48 50 45 52 78 75 73 74 74 74 66 66 71 76 79 78 72 68 65 60 62 60 61 58 73 74 71 72 73 78 76 77 79
55 57 58 58 58 55 52 52 56 57 56 61 65 63 62 60 65 76 81 84 84 81 78 87 76 81 74 72 69 62 76 71 68 73 72 74 74 74
67 66 65 64 71 68 55 45 49 54 62 72 86 83 83 84 86 88 87 84 87 89 77 83 73 82 73 69 60 59 72 68 71 70 68 72 72 69
73 69 72 65 64 79 78 78 78 68 70 66 71 74 75 72 70 70 68 73 73 81 66 74 72 73 76 72 73 68 67 62 62 66 67 70 72 70
72 69 66 78 83 82 84 83 83 81 80 83 85 86 81 81 77 78 80 78 77 78 77 82 84 78 78 80 74 75 74 71 63 63 63 70 73 74
80 75 70 71 71 79 84 84 82 81 91 90 74 70 70 73 74 80 83 87 87 92 90 88 92 86 89 92 94 86 84 76 77 81 78 75 78 75
80 76 72 80 80 82 81 82 74 70 72 79 76 74 72 72 70 67 65 68 72 72 69 69 78 83 78 92 99 100 94 93 85 80 82 76 77 68
90 87 84 81 78 72 71 77 83 78 74 82 84 82 77 78 76 72 71 72 76 74 66 60 57 59 75 81 90 99 93 93 91 83 76 82 84 79
84 76 67 62 70 72 77 81 83 83 79 81 78 75 74 71 71 74 75 72 70 79 80 64 62 67 69 76 94 96 99 100 95 84 88 100 97 90
72 71 72 75 85 88 90 92 84 76 76 74 70 68 74 80 80 74 78 87 85 81 85 78 80 79 75 73 83 89 83 84 86 91 91 100 100 77
81 80 80 89 92 86 85 83 77 72 71 71 70 68 74 77 90 87 87 93 98 99 92 78 83 91 100 92 78 76 80 87 85 97 96 92 100 94
78 79 86 93 83 79 83 81 76 76 80 78 73 71 75 85 89 90 92 97 98 91 90 91 95 97 99 94 96 91 87 82 85 82 94 97 92 78
84 90 87 81 74 75 84 85 80 75 77 79 84 92 93 96 95 94 96 96 93 98 97 90 83 91 94 91 91 85 80 79 83 86 87 95 100 98
93 85 78 76 77 86 89 87 84 81 79 79 77 79 83 90 96 99 100 100 100 100 100 100 91 88 95 100 99 98 95 89 83 90 88 88 94 93
81 82 84 89 91 93 91 83 82 82 81 73 72 79 88 95 95 100 100 100 100 100 99 100 100 100 96 100 95 94 94 87 85 84 77 65 92 96
Wind_Speed
12 12 11 11 10 9 11 12 12 3 1 6 4 4 2 1 2 3 3 3 3 4 4 6 7 7 7 7 6 5 5 5 6 7 8 9 9 9
14 13 12 11 11 11 10 8 6 8 3 5 4 6 4 2 2 2 3 3 3 3 4 5 6 6 7 7 6 6 5 5 7 8 9 10 10 10
15 14 14 12 12 11 10 9 8 7 13 7 8 8 6 3 0 2 2 3 4 4 5 5 5 6 5 4 4 5 6 5 5 7 10 10 11 11
17 15 15 13 13 12 10 10 8 7 9 15 11 7 5 2 1 1 2 3 3 4 6 6 6 5 5 4 4 5 6 7 8 9 9 9 10 11
16 15 14 12 13 11 10 10 9 9 8 12 9 7 5 2 1 1 2 2 3 3 5 7 6 6 7 8 8 8 9 9 9 9 9 10 10 11
14 13 12 11 11 10 10 10 10 10 10 10 9 6 4 2 3 3 3 6 7 7 5 6 7 6 7 8 10 10 11 10 9 9 10 11 12 13
14 13 12 12 10 9 8 9 8 9 8 8 6 4 3 2 2 3 6 8 10 5 4 6 10 11 12 14 12 10 11 9 10 11 12 12 13 14
15 14 13 11 10 9 8 6 5 5 6 5 4 3 2 2 2 5 8 8 4 2 12 16 16 18 17 14 10 11 11 11 12 13 13 13 13 13
14 13 11 9 7 7 6 5 4 4 2 1 1 3 5 5 7 8 8 8 10 15 17 20 18 17 14 12 11 12 11 13 13 14 13 13 12 14
11 10 8 7 5 3 3 2 1 0 1 2 5 5 7 7 8 10 12 15 17 19 16 12 17 18 17 15 16 13 12 13 16 12 14 13 15 16
10 8 6 5 5 3 2 2 2 2 2 3 4 6 7 9 10 12 14 15 17 14 17 16 15 18 18 20 17 15 14 13 11 12 14 16 17 17
9 7 5 6 6 4 3 4 5 5 6 6 6 8 10 12 13 12 14 16 17 13 3 11 19 19 8 14 5 16 18 17 17 20 21 20 19 20
9 8 7 6 5 5 5 6 7 7 8 10 11 12 12 12 11 10 12 15 19 20 20 19 21 19 19 23 22 22 23 25 26 25 23 22 22 21
9 8 7 6 6 6 6 7 7 8 10 10 13 14 12 11 10 10 11 12 14 17 18 17 19 22 25 25 21 22 23 25 24 25 25 26 26 26
9 9 8 7 7 8 9 8 8 9 10 11 11 11 11 12 14 16 16 16 17 17 17 17 19 21 23 26 24 23 22 22 25 25 24 27 28 29
11 10 11 11 12 11 8 9 10 11 8 8 9 12 14 15 16 16 18 19 21 23 22 22 23 23 25 26 26 24 21 20 24 28 31 31 32 33
15 15 14 13 12 11 11 11 10 10 11 13 14 15 17 19 20 20 20 23 24 23 25 26 24 23 24 25 26 24 25 25 26 29 31 28 29 30
13 14 13 13 13 12 10 13 14 14 14 15 18 19 19 19 21 22 19 19 21 23 22 23 23 25 27 27 20 23 25 27 28 28 30 26 25 29
17 19 20 19 17 16 17 17 17 17 18 18 19 19 20 20 17 20 21 19 20 19 21 23 22 23 18 10 25 21 23 21 25 27 28 30 25 29
21 23 22 19 18 18 19 19 19 19 20 20 20 20 20 19 20 20 21 20 21 23 23 21 19 17 16 18 24 27 23 23 23 24 24 21 23 27
25 23 21 21 21 21 21 21 20 20 20 19 19 18 19 19 20 21 21 19 20 19 20 23 24 19 23 27 24 27 28 24 22 24 26 25 24 26
23 25 25 25 24 24 23 23 22 21 21 21 22 21 21 20 20 21 19 18 19 19 22 24 26 24 22 21 22 24 26 28 27 25 25 25 26 21
27 26 24 24 24 24 24 23 23 23 22 23 22 22 21 21 22 22 21 20 20 21 23 24 23 22 25 23 24 25 27 30 29 30 31 24 23 25
Wind_Direction
150 151 149 137 152 153 170 172 151 142 166 174 171 183 164 110 61 47 46 62 56 40 28 32 32 28 25 24 24 34 40 47 38 30 23 19 15 8
144 144 137 136 140 147 152 154 169 144 132 158 165 173 167 130 75 33 29 18 47 37 15 12 14 17 22 24 33 28 24 11 6 7 6 2 0 358
138 137 125 128 123 124 133 143 147 143 133 124 147 157 167 180 189 6 17 7 356 8 9 357 359 7 9 13 7 2 352 357 349 345 344 346 345 343
137 134 125 126 119 116 118 116 117 135 142 137 148 161 169 164 298 6 36 9 354 5 3 1 348 350 3 352 341 344 312 318 323 328 333 335 336 336
134 132 127 130 121 117 114 114 115 119 134 146 139 152 153 151 29 20 21 21 29 0 332 336 336 339 333 336 330 322 315 316 323 326 327 327 328 329
133 131 129 128 123 120 118 112 114 117 119 123 124 133 129 125 39 39 18 346 339 329 320 343 333 330 339 337 324 312 323 324 330 326 323 323 323 323
135 131 126 122 115 122 117 112 114 117 118 118 118 119 113 101 23 351 337 337 343 6 11 346 334 324 321 317 321 315 309 312 318 317 318 317 316 315
140 137 133 131 117 110 109 108 110 117 116 117 103 113 99 61 356 334 326 333 346 335 330 319 320 315 318 317 306 313 294 307 312 314 313 314 314 314
141 140 135 133 133 131 122 122 112 94 69 52 269 286 292 300 306 309 313 312 302 305 315 311 318 314 321 321 315 307 297 298 305 307 313 314 315 314
146 147 149 146 144 150 146 138 119 38 306 310 314 312 302 303 304 308 307 304 303 304 314 298 319 314 320 312 313 297 297 298 301 300 306 306 312 313
160 162 169 174 159 183 213 251 273 296 298 301 301 303 297 296 295 295 293 298 300 302 312 303 310 316 319 311 306 299 295 300 290 298 303 304 308 310
173 179 194 206 198 213 259 300 305 309 313 315 305 294 294 294 293 286 291 295 297 306 328 311 311 322 315 317 8 320 305 296 295 291 294 293 299 302
190 193 193 197 207 219 234 271 289 303 305 286 291 297 301 302 304 299 290 288 286 284 291 299 297 299 293 292 298 300 296 296 297 296 291 288 290 296
198 202 206 208 216 230 246 264 278 282 276 289 299 302 305 303 299 294 295 292 291 291 299 296 293 298 297 292 292 297 297 302 299 290 286 288 287 290
224 226 224 225 229 238 252 265 274 264 277 288 293 294 299 301 299 296 293 292 293 292 294 296 297 299 299 297 293 294 298 294 294 290 290 286 282 291
231 226 227 234 247 260 250 243 253 272 277 280 282 289 294 297 299 302 305 304 303 299 294 295 297 298 299 298 296 292 293 286 289 292 293 287 286 292
235 239 237 228 233 238 246 256 248 255 267 272 280 290 296 299 301 300 300 301 302 303 303 303 301 301 300 299 294 290 289 286 286 292 291 283 288 292
221 229 226 230 245 247 239 235 251 265 271 280 287 291 293 295 298 302 301 299 301 301 301 304 307 307 304 298 287 287 289 288 292 287 285 276 280 289
232 235 238 246 245 249 255 259 264 269 279 282 286 286 288 291 293 293 297 298 294 293 295 300 300 296 288 283 291 295 285 297 306 288 276 276 268 280
242 242 247 250 252 256 257 256 264 273 275 279 280 282 285 286 288 289 291 291 291 294 295 294 292 294 287 295 300 295 288 297 301 298 302 279 290 292
243 250 252 258 263 263 261 260 264 270 271 273 276 278 280 283 285 285 286 283 284 287 289 287 290 292 289 294 296 288 291 291 286 287 291 293 288 292
248 253 258 262 261 258 256 258 264 264 267 271 276 280 281 281 281 282 278 275 278 278 279 285 295 299 297 289 282 287 292 297 297 289 281 276 277 277
255 258 259 257 257 257 258 259 259 264 270 278 281 282 282 280 281 278 274 273 273 278 284 289 293 290 286 281 283 286 288 292 295 298 299 298 286 277